Back to catalog

NOAA 1 DEB *

AliveSSO
NORAD 8828·DEBRIS·🇺🇸 United States

Launched Dec 11, 1970 from Vandenberg Space Force Base

Loading…

Next Passes (next 24 hours)

TLE

FreshSource: Space-Track

Epoch: Sep 14, 2026, 10:31 UTC

1 08828U 70106C   26257.43853549  .00000060  00000-0  79863-3 0  9995
2 08828 102.2537 236.3382 0031585 327.1779 186.6259 12.39741570522390

Track NOAA 1 DEB * in real time with AllMySat

Download on the App Store